Terminal Aerodrome Forecast
Issued by NWS Charleston, WV

Home | Current Version | Previous Version | Text Only | Print | Product List | Glossary On
Versions: 1 2 3 4 5 6 7 8 9 10 11 12 13 14 15 16 17 18 19 20 21 22
883
FTUS41 KRLX 110313 AAA
TAFEKN
TAF AMD
KEKN 110313Z 1103/1124 00000KT P6SM SCT150
     FM111500 17007KT P6SM OVC090=

USA.gov is the U.S. government's official web portal to all federal, state and local government web resources and services.